Probability
0 1 2 4 5 3 1 0 0 0 0 0 0 0 0 0 0 1 0 0 1 2 3 3 2 1 0 0 0 0 0 1 3 3 3 3 3 3 3 3 1 0 0
0 1 2 4 5 3 1 0 0 0 0 0 0 0 0 0 0 1 0 0 0 1 2 3 1 0 0 0 0 0 0 2 3 3 3 2 2 3 3 3 2 1 0
0 0 2 5 6 4 1 0 1 0 0 0 0 0 0 0 0 0 0 0 0 0 1 2 1 0 0 0 0 0 0 1 2 2 2 1 1 2 3 3 3 2 1
0 1 3 6 7 5 2 0 0 0 0 0 0 0 1 1 0 0 1 1 1 0 0 1 1 0 0 0 0 0 0 0 1 1 1 0 0 2 4 4 3 2 1
1 2 4 6 6 4 2 1 0 0 0 0 0 0 1 1 1 1 1 2 1 0 0 1 1 0 0 0 0 0 0 0 0 0 0 0 0 1 4 4 2 2 2
1 3 5 5 5 4 3 2 1 0 0 0 0 0 1 1 1 1 2 2 1 0 0 0 0 0 0 0 0 0 0 0 0 0 0 0 0 2 3 3 2 2 2
1 3 4 4 4 4 3 3 2 1 0 0 0 0 0 1 2 2 3 2 1 1 1 1 0 0 0 0 0 0 0 0 0 0 0 0 1 3 4 2 1 2 3
1 3 4 4 5 5 4 4 3 2 1 1 1 1 1 1 2 3 3 1 1 1 2 2 1 0 0 0 0 1 1 0 0 0 0 0 1 4 5 2 1 3 4
2 4 5 5 5 5 5 4 3 2 1 2 2 2 2 2 3 4 3 1 0 1 2 3 2 2 1 1 1 2 2 1 0 1 1 1 2 5 5 3 1 2 3
3 4 5 4 4 5 4 4 3 3 2 3 4 4 4 4 4 5 5 3 2 2 4 5 5 5 4 3 3 4 4 2 2 2 3 4 6 7 6 3 1 1 2
2 3 3 4 5 5 4 4 4 4 3 3 5 6 6 5 3 4 5 5 5 5 7 8 9 8 8 7 6 6 5 4 3 3 4 7 10 10 6 2 0 1 2
1 1 2 4 5 5 5 5 5 4 4 3 5 6 7 5 3 2 4 6 8 8 9 10 11 9 8 7 6 7 5 3 2 3 5 9 11 9 6 3 1 0 1
2 2 2 4 4 4 5 6 5 4 3 3 4 4 5 6 6 5 5 7 10 9 8 8 8 6 5 4 5 5 4 2 2 3 6 9 10 8 7 5 2 0 1
3 3 3 4 5 4 5 5 4 2 2 3 4 4 4 7 8 7 7 8 9 8 7 6 5 4 4 4 4 4 2 2 2 4 7 8 8 8 8 7 4 2 2
2 2 3 5 5 4 5 6 4 2 3 4 6 6 7 7 8 8 8 9 8 7 7 7 6 5 6 5 4 3 2 1 3 5 7 8 7 7 9 9 6 4 3
1 1 2 4 5 5 6 7 5 3 4 6 8 9 9 8 9 9 8 7 7 7 8 8 6 5 6 6 5 3 2 1 2 4 6 7 8 9 9 9 7 5 4
2 3 3 3 4 6 7 7 5 3 3 6 9 10 9 9 10 10 8 7 7 8 7 7 5 4 4 4 4 3 3 3 3 5 8 10 10 10 10 9 8 7 5
4 6 6 5 4 5 6 7 5 4 4 7 10 10 8 8 9 9 8 7 8 8 7 5 5 5 4 3 3 3 3 4 4 5 9 13 13 10 10 10 10 9 9
8 9 9 8 7 6 6 7 7 6 6 8 10 10 7 6 6 8 9 8 7 7 6 6 7 8 7 4 3 3 4 4 5 6 8 11 13 11 10 11 11 10 9
10 11 11 12 12 9 8 7 7 6 6 8 10 10 8 5 5 6 8 8 7 6 7 7 10 11 9 6 3 3 3 4 5 7 8 8 9 10 10 10 10 8 7
12 12 12 13 14 13 11 9 8 6 5 5 8 9 8 6 5 6 7 8 8 9 8 7 8 9 8 6 4 3 4 4 4 7 7 6 6 7 7 7 8 8 7
13 13 12 13 14 14 13 11 9 7 6 5 7 9 8 7 7 7 8 7 8 9 8 6 6 6 7 8 7 5 6 6 4 4 5 4 4 5 5 5 8 10 10
14 14 13 14 15 14 13 11 9 8 7 6 7 9 9 8 9 9 7 6 6 6 7 6 5 7 8 8 8 7 7 8 6 4 4 4 4 4 4 3 6 11 14
14 14 16 18 19 17 15 12 9 8 8 7 7 9 10 10 10 10 9 8 7 6 7 7 7 8 10 9 9 9 10 10 9 8 6 5 4 3 2 3 4 8 12
12 14 18 24 26 23 19 15 11 9 8 7 7 8 10 11 11 11 11 11 11 11 11 10 10 12 12 12 12 14 15 15 15 13 11 8 5 3 3 4 5 7 9
10 13 19 28 31 26 22 18 13 10 8 7 7 8 10 11 11 11 11 11 12 15 15 14 14 14 14 14 15 17 18 20 20 18 15 11 7 5 3 5 7 8 9
Wind_Speed
10 10 10 10 9 9 9 9 9 9 8 8 8 9 8 9 9 9 10 10 10 11 11 12 11 10 10 10 10 10 10 9 10 10 10 9 9 8 7 7 6 6 8
12 11 10 10 9 9 9 8 8 8 8 8 8 8 8 9 9 9 9 9 10 11 11 11 10 10 10 9 9 9 9 9 9 9 9 8 8 7 6 5 6 5 7
12 11 10 10 10 9 9 8 8 8 8 7 7 8 8 9 9 9 9 9 10 10 10 10 10 9 9 9 8 8 7 7 8 8 8 6 6 6 6 7 8 8 7
12 10 10 10 9 9 8 8 7 7 8 7 7 8 8 8 8 8 8 8 9 10 9 9 9 9 9 8 8 7 6 5 6 6 4 4 5 7 6 6 7 7 7
11 11 11 10 9 9 8 7 7 7 7 7 7 8 8 8 8 7 7 7 8 9 8 8 8 9 8 8 7 6 4 4 5 5 2 5 5 6 7 6 6 6 6
11 12 11 11 10 8 8 7 7 6 7 7 7 7 8 8 7 7 7 7 8 8 8 7 8 8 8 7 6 5 4 4 3 2 3 5 5 6 6 6 6 5 5
11 12 12 11 10 9 8 7 7 7 7 7 7 7 7 7 7 7 7 7 7 7 7 7 7 7 7 6 6 6 5 4 4 3 3 5 5 7 5 5 5 4 4
10 12 12 11 10 9 8 8 8 7 7 7 6 6 6 6 6 6 6 7 6 6 7 7 7 7 6 6 6 6 6 5 4 3 4 6 8 7 5 5 5 4 4
10 10 10 9 9 10 9 8 8 8 7 7 6 6 6 5 6 6 7 7 7 6 6 6 7 6 6 6 7 8 7 6 3 2 4 5 8 8 7 6 5 4 4
8 8 9 8 8 8 9 9 8 7 6 6 6 5 5 5 5 6 7 7 7 7 7 6 6 6 7 7 7 8 8 6 3 3 4 6 9 8 7 6 6 6 5
6 5 6 7 6 6 8 9 8 7 6 5 5 5 4 3 3 4 7 9 8 8 7 7 7 7 7 7 8 8 7 3 3 2 4 8 9 8 8 7 6 6 6
4 5 5 6 5 4 5 6 4 4 4 3 2 3 2 2 2 4 6 7 8 8 7 7 7 6 6 4 6 7 3 4 2 2 4 10 9 8 8 7 6 6 5
4 4 5 5 5 4 3 4 2 2 3 3 3 2 2 2 2 3 3 3 4 6 4 5 4 3 3 2 2 3 3 2 2 3 5 9 8 8 8 7 6 6 5
5 5 5 5 4 3 3 2 2 2 2 2 2 1 2 1 1 2 2 2 2 2 2 2 2 2 2 1 1 2 2 1 2 3 5 8 7 7 8 7 7 5 5
5 6 6 5 4 3 2 1 2 2 2 2 2 2 2 2 1 1 1 1 1 2 3 2 2 2 2 1 1 2 1 1 2 4 5 8 8 7 7 7 6 5 5
6 6 5 5 4 3 2 1 1 1 2 2 2 2 2 2 1 1 1 1 1 1 2 2 2 2 2 2 2 2 2 2 2 3 5 6 8 8 7 6 6 5 5
6 6 5 5 5 3 2 0 1 1 3 2 2 2 2 2 1 0 1 2 1 1 2 2 2 1 2 2 2 2 2 3 2 3 4 4 5 7 7 6 6 5 5
6 6 5 4 5 3 2 0 1 1 2 2 2 2 2 2 1 0 0 1 1 2 2 2 2 1 2 2 2 2 2 3 3 3 3 3 3 4 6 7 6 5 5
7 6 5 3 4 3 2 1 1 2 2 2 2 2 2 1 1 0 0 1 1 1 1 2 2 2 2 2 2 2 2 3 2 3 3 3 4 4 4 6 6 5 4
7 6 5 3 3 3 2 1 0 2 2 2 2 2 2 1 1 0 1 1 1 2 1 1 2 2 2 2 1 2 2 2 2 2 2 2 3 4 3 4 4 3 4
7 6 5 3 3 2 1 1 1 1 1 1 2 3 2 1 1 1 1 1 1 2 2 2 2 2 2 2 2 2 1 2 2 2 2 1 2 2 2 3 3 2 2
8 7 6 4 3 3 1 1 1 1 1 2 1 2 2 1 1 1 1 1 1 1 2 1 2 1 1 1 2 2 1 1 1 2 2 2 2 2 2 3 2 2 2
9 8 6 5 4 3 3 2 1 1 1 1 2 2 2 1 1 2 2 1 1 1 2 1 1 1 1 1 1 1 1 1 1 1 1 1 2 2 2 2 2 3 3
10 9 7 6 4 4 3 2 2 2 1 1 1 2 2 1 1 2 2 1 1 1 2 1 2 0 1 1 0 1 1 2 2 1 0 1 1 1 1 1 2 2 3
10 10 9 7 5 4 3 2 2 1 1 1 1 2 2 2 1 2 2 1 1 1 1 1 1 0 0 1 0 1 1 0 1 2 1 1 0 1 1 1 2 2 2
10 10 10 8 6 5 5 4 2 2 1 1 1 1 2 2 1 1 2 1 1 1 1 1 1 1 1 1 0 0 1 1 1 1 2 2 1 0 1 1 1 2 2
Wind_Direction
99 97 98 94 93 96 97 93 93 96 101 104 107 108 108 108 109 113 116 118 119 124 128 129 127 129 128 124 122 120 118 118 116 115 114 113 114 116 116 119 118 107 115
104 104 100 96 95 97 96 94 96 98 100 106 111 112 113 113 114 117 120 122 124 127 129 130 130 133 132 129 127 123 125 129 129 130 126 121 119 116 112 111 109 117 121
107 108 103 97 99 99 97 97 96 100 98 102 110 114 116 117 119 121 122 124 127 129 130 132 133 137 134 130 128 129 136 143 146 152 152 136 128 121 115 115 118 125 127
108 107 105 104 102 102 100 97 96 102 101 101 108 115 118 118 120 122 123 127 130 130 131 133 131 130 132 133 132 135 147 165 168 182 180 140 132 132 130 131 130 131 133
108 107 111 115 111 107 106 104 102 100 103 102 108 114 118 117 116 118 120 127 133 134 134 136 140 138 138 139 140 147 161 188 198 214 162 119 113 132 138 142 140 140 139
111 109 117 120 116 113 114 111 108 106 107 108 108 111 116 115 117 119 123 131 138 139 138 137 139 141 145 150 155 166 187 216 233 218 137 122 123 137 141 143 144 141 143
108 112 123 124 121 118 115 110 105 106 110 111 114 115 115 116 116 115 121 129 138 143 143 141 142 148 154 161 173 188 204 224 227 184 130 121 125 140 149 148 146 148 151
109 112 121 128 127 123 119 112 106 105 109 113 116 116 120 123 123 123 130 136 140 145 150 152 156 159 165 176 190 205 219 235 216 170 134 129 138 151 156 150 148 147 150
108 116 125 136 136 133 125 120 117 115 116 120 120 123 127 129 137 141 143 146 148 151 154 160 166 171 180 190 202 213 222 236 242 180 143 134 156 163 166 162 161 163 155
102 114 131 134 135 136 136 134 130 130 134 131 130 133 134 143 153 158 156 156 159 158 161 167 173 181 187 197 206 214 220 234 225 190 139 146 159 163 165 166 164 163 155
96 108 123 123 132 137 137 135 145 148 150 149 153 160 164 170 165 155 147 156 165 166 173 180 186 192 195 204 207 211 216 221 210 161 131 150 162 164 164 167 164 164 163
108 121 110 104 106 108 118 131 146 150 149 169 148 162 172 152 144 130 134 154 167 174 183 193 197 197 204 211 206 207 207 208 196 135 141 154 160 163 165 168 169 174 177
120 101 93 97 95 98 110 128 135 145 140 154 146 152 145 145 131 126 140 157 172 180 190 185 195 204 198 193 187 173 190 188 146 130 137 147 155 164 166 168 171 176 181
124 107 98 94 94 82 75 102 139 131 132 119 123 112 119 115 111 129 134 151 167 175 169 171 182 172 182 182 157 151 173 165 120 116 126 134 139 152 162 168 174 179 187
123 110 103 101 101 87 67 33 87 95 106 105 111 101 98 101 110 112 101 125 181 168 156 163 168 159 166 157 137 119 91 72 96 110 122 132 131 135 144 154 162 165 170
120 115 113 114 102 89 87 73 81 102 104 99 85 82 81 93 83 99 133 179 180 166 154 157 162 159 160 151 145 142 139 108 92 109 129 135 134 136 141 149 153 158 163
123 117 118 124 113 103 96 92 104 116 112 105 100 100 78 89 110 148 159 154 165 160 147 135 136 147 153 149 149 149 140 141 137 125 131 137 144 144 145 146 152 159 165
124 119 119 124 117 116 113 70 78 99 101 106 109 114 100 82 99 129 133 139 164 174 157 155 152 149 139 142 150 157 147 141 153 147 140 146 147 148 149 149 150 157 167
123 118 112 103 115 122 126 128 137 114 104 108 100 90 97 102 106 92 92 101 171 148 131 151 133 146 143 147 152 151 141 136 159 148 138 144 145 140 147 151 156 160 170
127 125 123 120 120 134 130 132 141 116 121 126 109 91 76 103 95 13 119 115 141 117 114 121 128 146 152 158 137 110 124 144 148 140 151 146 143 151 153 146 158 166 168
136 134 135 136 121 117 129 145 145 125 116 113 111 106 93 69 84 49 47 83 111 129 144 145 129 148 158 145 120 104 112 132 138 134 149 129 121 126 121 123 148 164 153
145 144 144 146 139 138 140 136 155 159 149 125 107 120 115 99 87 87 63 69 96 114 116 118 125 135 158 149 143 143 120 98 66 145 151 156 148 135 123 134 137 134 134
152 155 155 147 145 153 158 149 152 139 113 106 126 119 112 102 99 64 74 53 76 94 109 133 123 138 150 158 154 140 136 129 113 92 108 120 121 119 135 135 130 135 133
158 155 147 148 150 156 163 162 164 135 126 132 128 128 137 143 115 102 96 75 81 83 110 159 114 108 131 168 124 60 85 126 145 141 70 85 119 122 138 134 117 111 126
164 159 154 151 155 156 155 156 162 148 152 137 129 137 145 143 142 113 109 111 114 101 104 79 82 235 227 233 195 135 119 118 137 153 160 167 125 136 133 132 113 106 108
167 163 158 152 157 162 166 165 162 164 148 129 135 148 158 144 153 139 140 141 142 136 161 167 187 215 237 273 289 168 155 155 156 150 152 171 160 143 112 108 118 127 121